Location: Bryzozowice
(50.3667°N, 18.9667°E)
Time: 15:20:17
(UTC+00:00)

Cosmos 2221 - Pass Details

Date: 24 January 2020
Orbit: 593 x 616 km, 82.5° (Epoch: 20 February)

Event Time Altitude Azimuth Distance (km) Brightness Sun altitude
Rises 17:18:45 0° 354° (N) 2,847 5.9 -18.2°
Reaches altitude 10° 17:21:02 10° 1° (N) 1,942 5.0 -18.6°
Enters shadow 17:25:05 46° 70° (ENE) 813 2.7 -19.2°
